Location: Austin
(30.3000°N, 97.7500°W)
Time: 12:31:39
(UTC-05:00)

Cosmos 1802 Rocket - Pass Details

Date: 05 September 2024
Orbit: 954 x 1010 km, 82.9° (Epoch: 11 September)

Event Time Altitude Azimuth Distance (km) Brightness Sun altitude
Rises 20:11:10 0° 177° (S) 3,614 6.8 -5.7°
Reaches altitude 10° 20:13:39 10° 174° (S) 2,672 6.1 -6.3°
Maximum altitude 20:19:41 68° 93° (E) 1,029 4.0 -7.6°
Drops below altitude 10° 20:25:49 10° 12° (NNE) 2,706 6.4 -8.8°
Sets 20:28:21 0° 10° (N) 3,663 7.1 -9.4°
